Content
SEND FEEDBACK

Daily
Averages
Monthly
Summary
France

CAEN, FRANCE


Home > Europe > France
Elevation: 220 feet     Latitude: 49 11N     Longitude: 000 27W

WEATHER
 
SELECT A DAY
Number of Records: 216,119;   Date Range: 7/1/96 - 9/15/14
 
SHARE

PRINT THIS DATA

[ ← Previous Day ]
WEATHER ALMANAC - MAY 1, 2013
[ Next Day → ]
[ °C ]   °F
Weather ElementAverageHighLow
Temperature48.9 °F53.6 °F (12:00 pm)44.6 °F (4:30 am)
Dewpoint42.4 °F44.6 °F (11:30 am)39.2 °F (12:30 am)
Humidity77.9 %93 % (10:00 pm)62 % (4:00 pm)
Barometer30.13 in30.21 in (2:00 am)30.09 in (2:00 pm)
Wind Speed11.3 mph19.6 mph (4:00 pm)
Wind Gust33.4 mph (4:30 pm)
Weather ElementAverage
Visibility5.9 mi
Wind DirectionNNE (32.4 °)

Weather ElementTotal
Precipitation---
Heating Degree Days15.9 (Base 65)
Averaged from 51 records on May 1, 2013
WEATHER CONDITIONS BREAKOUT
WIND DIRECTION BREAKOUT
WEATHER BY HOUR - MAY 1, 2013
[ °C ]   °F
Local TimeTemperatureDewpointHumidityBarometerVisibilityWind DirectionWind SpeedGust SpeedPrecipitationEventsConditions
12:30 AM48.2 °F39.2 °F71 %30.18 in6.2 miNE (50°)9.2 mph
1:00 AM48.2 °F39.2 °F71 %30.18 in6.2 miNE (40°)8.1 mph
1:30 AM48.2 °F39.2 °F71 %30.18 in6.2 miNE (40°)5.8 mph
2:00 AM47.0 °F41.0 °F73 %30.21 in11.0 miNNE (30°)4.6 mphClear
2:00 AM46.4 °F41.0 °F81 %30.18 in6.2 miNNE (30°)4.6 mph
2:30 AM46.4 °F41.0 °F81 %30.18 in6.2 miNNE (30°)6.9 mph
3:00 AM46.4 °F41.0 °F81 %30.18 in6.2 miNE (40°)9.2 mph
3:30 AM46.4 °F41.0 °F81 %30.15 in6.2 miNE (40°)8.1 mph
4:00 AM46.4 °F41.0 °F81 %30.15 in6.2 miNE (40°)9.2 mph
4:30 AM44.6 °F41.0 °F87 %30.15 in6.2 miNNE (30°)8.1 mph
5:00 AM44.6 °F41.0 °F87 %30.15 in6.2 miNE (40°)6.9 mph
5:30 AM44.6 °F41.0 °F87 %30.15 in6.2 miNNE (30°)6.9 mph
6:00 AM44.6 °F41.0 °F87 %30.15 in6.2 miNNE (30°)6.9 mph
6:30 AM44.6 °F41.0 °F87 %30.15 in6.2 miNNE (20°)8.1 mph
7:00 AM44.6 °F41.0 °F87 %30.15 in6.2 miNNE (20°)9.2 mph
7:30 AM44.6 °F41.0 °F87 %30.15 in6.2 miNNE (20°)8.1 mph
8:00 AM46.0 °F41.0 °F77 %30.17 in9.0 miENE (60°)4.6 mphClear
8:00 AM46.4 °F41.0 °F81 %30.15 in6.2 miENE (60°)4.6 mph
8:30 AM48.2 °F42.8 °F82 %30.15 in6.2 miNNE (30°)6.9 mph
9:00 AM48.2 °F42.8 °F82 %30.15 in6.2 miNNE (30°)9.2 mph
9:30 AM50.0 °F42.8 °F76 %30.15 in6.2 miNNE (30°)11.5 mph
10:00 AM50.0 °F42.8 °F76 %30.15 in6.2 miNE (40°)12.7 mph
10:30 AM51.8 °F42.8 °F71 %30.15 in6.2 miNE (40°)12.7 mph
11:00 AM51.8 °F42.8 °F71 %30.15 in6.2 miNNE (30°)13.8 mph
11:30 AM51.8 °F44.6 °F76 %30.12 in6.2 miNNE (30°)13.8 mph
12:00 PM53.6 °F44.6 °F72 %30.12 in6.2 miNNE (30°)15.0 mph
12:30 PM53.6 °F44.6 °F72 %30.12 in6.2 miNNE (30°)15.0 mph
1:00 PM51.8 °F42.8 °F71 %30.12 in6.2 miNNE (20°)17.3 mph
1:30 PM51.8 °F44.6 °F76 %30.12 in6.2 miNNE (20°)18.4 mph
2:00 PM53.0 °F44.0 °F64 %30.12 in9.0 miNNE (20°)18.4 mphScattered Clouds
2:00 PM53.6 °F44.6 °F72 %30.09 in6.2 miNNE (20°)18.4 mph
2:30 PM53.6 °F42.8 °F67 %30.09 in6.2 miNNE (20°)17.3 mphPartly Cloudy
3:00 PM53.6 °F44.6 °F72 %30.09 in6.2 miNNE (20°)18.4 mph
3:30 PM53.6 °F42.8 °F67 %30.09 in6.2 miNNE (30°)17.3 mph28.8 mphScattered Clouds
4:00 PM53.6 °F41.0 °F62 %30.09 in6.2 miNE (40°)19.6 mphScattered Clouds
4:30 PM53.6 °F41.0 °F62 %30.09 in6.2 miNNE (30°)17.3 mph33.4 mphMostly Cloudy
5:00 PM53.6 °F42.8 °F67 %30.09 in5.0 miNNE (30°)16.1 mphMostly Cloudy
5:30 PM51.8 °F41.0 °F67 %30.09 in6.2 miNNE (30°)16.1 mphOvercast
6:00 PM50.0 °F41.0 °F71 %30.09 in6.2 miNNE (30°)17.3 mphOvercast
6:30 PM50.0 °F41.0 °F71 %30.09 in6.2 miNE (40°)12.7 mphRainLight Rain
7:00 PM50.0 °F42.8 °F76 %30.09 in6.2 miNE (40°)11.5 mphRainLight Rain
7:30 PM50.0 °F42.8 °F76 %30.09 in6.2 miNNE (30°)9.2 mphRainLight Rain
8:00 PM48.0 °F44.0 °F79 %30.12 in4.0 miNE (40°)10.4 mphRainRain
8:00 PM48.2 °F42.8 °F82 %30.09 in3.7 miNE (40°)10.4 mphRainRain
8:30 PM48.2 °F44.6 °F87 %30.09 in3.1 miNNE (30°)9.2 mphRainLight Rain
9:00 PM48.2 °F44.6 °F87 %30.09 in3.7 miNNE (30°)9.2 mphRainLight Rain
9:30 PM46.4 °F42.8 °F87 %30.09 in4.3 miNNE (30°)11.5 mphRainLight Rain
10:00 PM46.4 °F44.6 °F93 %30.12 in4.3 miNNE (30°)10.4 mphRainLight Rain
10:30 PM46.4 °F44.6 °F93 %30.12 in3.7 miNNE (30°)10.4 mphRainRain
11:00 PM46.4 °F44.6 °F93 %30.12 in3.1 miNNE (30°)10.4 mphRainRain
11:30 PM46.4 °F44.6 °F93 %30.12 in3.1 miNNE (30°)10.4 mphRainLight Rain
Hourly data recorded from LFRK, located miles away from Caen, France







STORIES FROM OUR PARTNERS